Regional Weather Roundup
Issued by NWS Northern Indiana

Home | Current Version | Previous Version | Text Only | Print | Product List | Glossary Off
Versions: 1 2 3 4 5 6 7 8 9 10 11 12 13 14 15 16 17 18 19 20 21 22 23 24 25 26 27 28 29 30 31 32 33 34 35 36 37 38 39 40 41 42 43 44 45 46 47 48 49 50

000
ASUS43 KIWX 042300
RWRIWX

KIWX WEATHER ROUNDUP
NATIONAL WEATHER SERVICE NORTHERN INDIANA
700 PM EDT FRI SEP 04 2015

NOTE: "FAIR" INDICATES FEW OR NO CLOUDS BELOW 12,000 FEET WITH NO
SIGNIFICANT WEATHER AND/OR OBSTRUCTIONS TO VISIBILITY.

* THESE STATIONS ARE NOT UNDER NWS QUALITY CONTROL. THEY ALSO MAY NOT
  REPORT WEATHER SUCH AS PRECIPITATION OR FOG.

INZ001>027-050000-
NORTHERN INDIANA

CITY           SKY/WX    TMP DP  RH WIND       PRES   REMARKS
GARY*          PTSUNNY   75  68  78 NE12      30.04R
SOUTH BEND     CLOUDY    79  69  71 N3        30.04S
ELKHART*       SUNNY     79  72  78 NW3       30.03S
GOSHEN         CLOUDY    73  65  75 SW3       30.04S
ANGOLA*        PTSUNNY   75  72  88 CALM      30.04F
FORT WAYNE     LGT RAIN  66  63  90 CALM      30.04F

$$
INZ028>050-050000-
CENTRAL INDIANA

CITY           SKY/WX    TMP DP  RH WIND       PRES   REMARKS
LAFAYETTE      CLOUDY    79  64  60 E5        30.01R
KOKOMO*        CLOUDY    70  63  78 E8        30.06R
MUNCIE*        CLOUDY    70  63  78 S8        30.08R
INDIANAPOLIS   CLOUDY    85  65  51 NE17      30.02R THUNDER

$$
MIZ043>046-050>051-056>058-064>065-071>073-077>080-050000-
SOUTHWEST LOWER MICHIGAN

CITY           SKY/WX    TMP DP  RH WIND       PRES   REMARKS
BATTLE CREEK   CLOUDY    78  66  66 N3        30.04F
BENTON HARBOR  PTSUNNY   73  66  78 VRB3      30.04S
COLDWATER*     CLOUDY    76  69  79 CALM      30.03F
HILLSDALE*     CLOUDY    76  70  80 CALM      30.06S
HOLLAND        PTSUNNY   75  66  73 CALM      30.04F
GRAND RAPIDS   PTSUNNY   76  69  79 NE5       30.03F
KALAMAZOO      CLOUDY    79  66  64 NW5       30.04S
STURGIS*       CLOUDY    77  72  83 SE3       30.03F
THREE RIVERS*  PTSUNNY   79  70  74 CALM      30.04S

$$
OHZ001>008-015>018-024>025-050000-
NORTHWEST OHIO

CITY           SKY/WX    TMP DP  RH WIND       PRES   REMARKS
DEFIANCE       CLOUDY    75  66  73 SW5       30.05R
FINDLAY        LGT RAIN  71  63  75 SE6       30.04S
TOLEDO EXPRESS CLOUDY    76  70  82 SW5       30.03S
TOLEDO METCALF CLOUDY    76  68  76 SE9       30.05R
LIMA           CLOUDY    70  66  87 W7        30.10R

$$
AND FOR LAKE MICHIGAN COASTAL AND OPEN LAKE BUOY OBSERVATIONS

STATION/POSITION TEMP    WIND        PRES    VSBY  WAVE
                 AIR SEA DIR/SP/G                  HT/PER
                 (F)     (DEG/KT/KT) (MB)    (MI)  (FT/S)
CALUMET HARBOR    72      50/  9/ 11   N/A
MICHIGAN CITY     71      20/ 13/ 14   N/A
BURNS HARBOR      74      60/ 13/ 14 1016.9S
SAINT JOSEPH      72     340/  5/  6 1017.9S
SOUTH LAKE BUOY   69 71   30/  8/  8 1016.6S         1
4 MI NW BRIDGMAN  71 77   60/  8/  8   N/A           1/ 4
MICHIGAN CITY     72 74   60/ 10/ 12   N/A           1/ 4

$$
&&


USA.gov is the U.S. government's official web portal to all federal, state and local government web resources and services.